Home   Weather   Schwyz   Past weeks

Flag for Switzerland Past Weather in Schwyz, Schwyz, Switzerland — Yesterday and Last 2 Weeks

Now
27 °F

Chilly.


Feels Like: 23 °F
Forecast: 14 / 32 °F
Wind: 3 mph from Southeast

Location: Altdorf

Current Time: Jan 23, 2017 at 10:17:00 pm

Latest Report: Jan 23, 2017 at 9:00 pm


Visibility: N/A

Pressure: 30.28 "Hg (28.37 "Hg at 515m altitude)

Humidity: 89%

Dew Point: 24 °F

Location of SchwyzLocation

Past Weather in Schwyz — Graph

°F

Schwyz Temperature Yesterday

Maximum temperature yesterday: 29 °F (at 2:00 pm)
Minimum temperature yesterday: 27 °F (at 8:00 am)
Average temperature yesterday: 28 °F

High & Low Weather Summary for the Past Weeks

 TemperatureHumidityPressure
High48 °F (Jan 13, 12:00 am)98% (Jan 10, 9:00 pm)30.55 "Hg (Jan 10, 9:00 pm)
Low12 °F (Jan 18, 10:00 am)48% (Jan 13, 9:00 am)29.50 "Hg (Jan 13, 1:00 am)
Average29 °F80%30.24 "Hg
* Reported Jan 8 8:00 pm — Jan 23 8:00 pm, Schwyz, Weather by CustomWeather, © 2017

Note: Actual official high and low records may vary slightly from our data, if they occured in-between our weather recording intervals... More about our weather records

Advertising

Schwyz Weather History for the Previous 24 Hours

Scroll right to see more
 ConditionsComfort  
Time TempWeatherWind HumidityBarometerVisibility
8:00 pm
Mon, Jan 23
27 °FChilly.6 mph87%30.29 "HgN/A
7:00 pm28 °FOvercast.3 mph87%30.29 "Hg3 mi
6:00 pm28 °FChilly.3 mph90%30.27 "HgN/A
5:00 pm28 °FChilly.5 mph88%30.27 "HgN/A
4:00 pm29 °FLow clouds.3 mph87%30.26 "Hg2 mi
3:00 pm28 °FChilly.1 mph88%30.25 "HgN/A
2:00 pm28 °FChilly.2 mph89%30.26 "HgN/A
1:00 pm28 °FLow clouds.3 mph89%30.28 "Hg2 mi
12:00 pm27 °FChilly.3 mph90%30.30 "HgN/A
11:00 am27 °FChilly.3 mph90%30.31 "HgN/A
10:00 am26 °FLow clouds.3 mph92%30.31 "Hg6 mi
9:00 am26 °FChilly.5 mph92%30.30 "HgN/A
8:00 am26 °FChilly.3 mph92%30.29 "HgN/A
7:00 am25 °FLow clouds.3 mph94%30.29 "Hg9 mi
6:00 am24 °FCold.3 mph94%30.30 "HgN/A
5:00 am25 °FChilly.2 mph93%30.30 "HgN/A
4:00 am25 °FLow clouds.2 mph93%30.30 "Hg9 mi
3:00 am26 °FChilly.5 mph91%30.31 "HgN/A
2:00 am26 °FChilly.3 mph91%30.32 "HgN/A
1:00 am27 °FLow clouds.3 mph90%30.31 "Hg9 mi
12:00 am27 °FChilly.3 mph90%30.32 "HgN/A
11:00 pm
Sun, Jan 22
28 °FChilly.1 mph90%30.32 "HgN/A
10:00 pm28 °FLow clouds.1 mph88%30.32 "Hg9 mi
Weather by CustomWeather, © 2017

See weather overviewHow to use our weather pages